CT1OY Oeiras PT current weather conditions

sailwx.info

Wind from 288 at 11 knots gusting 11

Air temperature 12.8° C
Dewpoint 12.6° C

Last reported at 2015-Jan-29 23:46 UTC.
Time now 2015-Jan-30 00:32 UTC

Location: N 38°44' W 009°17'.
View on Google Maps.

See reports from other nearby stations

  
Tides and Currents Weather Stations Pressure Air Temp Water Temp Dewpoint Dewpoint Depression Visibility Wind Speed Wind Dir Waves Ship Positions
date/time (UTC)wind fromknots sea level pressurealtimeterstation pressurevisibilityair tempwater tempwave heightnotes
2015-Jan-29 23:46 288 11 gusting 11 12.8
2015-Jan-29 23:16 280 6 gusting 11 12.8
2015-Jan-29 23:06 324 4 12.8
2015-Jan-29 22:46 276 0 12.8
2015-Jan-29 22:16 222 4 gusting 12 12.8
2015-Jan-29 22:06 271 1 gusting 11 12.8
2015-Jan-29 21:46 307 3 gusting 11 12.8
2015-Jan-29 21:16 276 13 gusting 13 12.8
2015-Jan-29 21:06 267 1 gusting 13 12.8
2015-Jan-29 20:56 298 3 gusting 13 12.8
2015-Jan-29 20:46 278 8 gusting 13 12.8
2015-Jan-29 20:26 289 7 gusting 12 12.8
2015-Jan-29 20:06 277 6 gusting 13 12.2
2015-Jan-29 19:56 256 1 12.2
2015-Jan-29 19:36 256 2 gusting 11 12.2
2015-Jan-29 19:26 262 2 gusting 13 12.2
2015-Jan-29 19:06 255 3 gusting 13 12.2
2015-Jan-29 18:56 293 4 gusting 12 12.2
2015-Jan-29 18:46 302 5 gusting 13 12.8
2015-Jan-29 18:36 276 6 gusting 12 12.8
2015-Jan-29 18:26 278 3 gusting 13 12.8
2015-Jan-29 18:16 306 8 gusting 15 12.8
2015-Jan-29 18:06 274 9 gusting 14 12.8
2015-Jan-29 17:56 257 2 gusting 14 12.8
2015-Jan-29 17:26 263 6 gusting 16 12.8
2015-Jan-29 17:16 258 4 gusting 18 12.8
2015-Jan-29 17:06 286 6 gusting 16 12.8
2015-Jan-29 16:56 256 2 gusting 13 12.8
2015-Jan-29 16:46 278 5 gusting 13 13.3
2015-Jan-29 16:06 295 1 gusting 12 13.3
2015-Jan-29 15:56 291 5 gusting 11 13.3
2015-Jan-29 15:46 256 0 gusting 10 13.3
2015-Jan-29 15:16 235 2 13.3
2015-Jan-29 15:06 293 13.3
2015-Jan-29 14:56 291 0 13.3
2015-Jan-29 14:46 264 1 12.8
2015-Jan-29 14:16 288 0 13.3
2015-Jan-29 14:06 266 0 13.3
2015-Jan-29 13:56 312 1 13.3
2015-Jan-29 13:46 288 2 13.3
2015-Jan-29 13:26 294 6 13.3
2015-Jan-29 12:56 253 13.3
2015-Jan-29 12:36 273 3 13.3
2015-Jan-29 12:16 270 1 13.3
2015-Jan-29 12:06 297 1 13.3
2015-Jan-29 11:56 274 1 13.3
2015-Jan-29 11:46 250 0 13.3
2015-Jan-29 11:36 284 2 13.3
2015-Jan-29 11:06 273 0 13.3
2015-Jan-29 10:56 283 0 12.8
2015-Jan-29 10:36 288 12.8
2015-Jan-29 10:16 269 0 12.8
2015-Jan-29 10:06 284 2 12.8
2015-Jan-29 09:56 265 12.8
2015-Jan-29 09:36 314 3 12.2
2015-Jan-29 09:06 269 4 12.2
2015-Jan-29 08:56 294 12.2
2015-Jan-29 08:36 269 0 12.2
2015-Jan-29 08:16 279 1 12.2
2015-Jan-29 07:56 286 0 12.2
2015-Jan-29 07:36 323 0 12.2
2015-Jan-29 07:26 253 3 12.2
2015-Jan-29 07:06 300 1 12.2
2015-Jan-29 06:46 271 12.2
2015-Jan-29 05:46 235 0 12.2
2015-Jan-29 05:36 284 0 12.2
2015-Jan-29 05:26 288 0 12.2
2015-Jan-29 05:06 214 0 12.2
2015-Jan-29 04:36 311 0 12.2
2015-Jan-29 04:06 332 1 12.2
2015-Jan-29 03:56 322 2 12.2
2015-Jan-29 03:46 322 0 gusting 11 12.2
2015-Jan-29 03:26 300 3 gusting 12 11.7
2015-Jan-29 03:16 302 3 gusting 13 11.7
2015-Jan-29 03:06 307 8 gusting 13 11.7
2015-Jan-29 02:56 314 2 gusting 13 11.7
2015-Jan-29 02:46 314 6 gusting 13 11.7
2015-Jan-29 02:36 294 0 gusting 10 11.7
2015-Jan-29 02:26 295 2 gusting 19 11.7
2015-Jan-29 02:16 295 13 gusting 16 11.7
2015-Jan-29 02:06 269 7 gusting 15 11.7
2015-Jan-29 01:46 288 4 gusting 14 11.7
2015-Jan-29 01:36 302 6 gusting 14 11.7
2015-Jan-29 01:26 314 6 gusting 13 12.2
2015-Jan-29 01:06 277 0 gusting 15 11.7
2015-Jan-29 00:56 340 4 gusting 13 12.2
2015-Jan-29 00:46 262 4 gusting 18 12.2
2015-Jan-29 00:36 349 8 gusting 13 11.7
2015-Jan-29 00:26 291 1 gusting 14 11.7
2015-Jan-29 00:16 293 6 gusting 11 11.7
2015-Jan-28 23:56 288 11.7
2015-Jan-28 23:46 274 2 11.7
2015-Jan-28 23:36 289 1 gusting 13 11.7
2015-Jan-28 23:26 260 0 gusting 13 11.7
2015-Jan-28 23:16 051 2 gusting 13 11.7
2015-Jan-28 23:06 263 1 gusting 10 11.7
2015-Jan-28 22:46 356 11.7
2015-Jan-28 22:36 330 5 gusting 13 11.7
2015-Jan-28 22:16 316 3 gusting 12 11.7
2015-Jan-28 22:06 016 5 gusting 12 11.7
2015-Jan-28 21:46 291 11.7
2015-Jan-28 21:26 314 2 11.7
2015-Jan-28 21:16 317 3 gusting 13 11.7
2015-Jan-28 21:06 297 11.7
2015-Jan-28 20:56 011 5 gusting 10 11.7
2015-Jan-28 20:36 020 11.7
2015-Jan-28 20:26 344 4 gusting 15 11.7
2015-Jan-28 20:16 268 2 gusting 17 11.7
2015-Jan-28 19:56 290 0 gusting 13 12.2
2015-Jan-28 19:46 143 12.2
2015-Jan-28 19:36 284 12.2
2015-Jan-28 19:26 333 3 12.2
2015-Jan-28 18:56 301 6 gusting 11 12.2
2015-Jan-28 18:46 276 12.2
2015-Jan-28 18:36 290 1 gusting 15 12.2
2015-Jan-28 18:26 023 6 gusting 12 12.2
2015-Jan-28 18:16 062 12.2
2015-Jan-28 17:56 314 5 gusting 12 12.2
2015-Jan-28 17:46 328 2 gusting 13 12.2
2015-Jan-28 17:36 229 12.2
2015-Jan-28 17:26 342 6 12.2
2015-Jan-28 16:56 309 5 gusting 13 12.8
2015-Jan-28 16:46 299 3 gusting 13 12.8
2015-Jan-28 16:26 018 12.8
2015-Jan-28 16:16 024 7 gusting 13 12.8
2015-Jan-28 16:06 328 2 gusting 15 12.8
2015-Jan-28 15:56 014 12.8
2015-Jan-28 15:46 069 0 gusting 18 13.3
2015-Jan-28 15:36 269 13.3
2015-Jan-28 15:16 238 13.3
2015-Jan-28 14:56 327 0 gusting 14 13.9
2015-Jan-28 14:46 321 5 gusting 16 13.9
2015-Jan-28 14:36 272 6 gusting 15 14.4
2015-Jan-28 14:26 315 9 gusting 21 14.4
2015-Jan-28 14:16 267 5 gusting 12 14.4
2015-Jan-28 14:06 304 6 gusting 15 13.9
2015-Jan-28 13:56 052 3 gusting 23 13.9
2015-Jan-28 13:36 231 5 gusting 12 13.9
2015-Jan-28 13:26 259 4 gusting 23 13.9
2015-Jan-28 12:56 322 4 gusting 13 13.9
2015-Jan-28 12:36 039 12 gusting 14 13.9
2015-Jan-28 12:26 326 0 gusting 10 13.9
2015-Jan-28 12:16 091 0 gusting 10 13.9
2015-Jan-28 12:06 001 13.9
2015-Jan-28 11:56 319 13.3
2015-Jan-28 11:46 138 13.3
2015-Jan-28 11:36 291 1 gusting 10 13.3
2015-Jan-28 11:26 321 0 gusting 13 13.3
2015-Jan-28 11:16 360 4 gusting 11 12.8
2015-Jan-28 11:06 298 6 gusting 12 12.8
2015-Jan-28 10:46 032 2 gusting 13 12.2
2015-Jan-28 10:36 103 1 gusting 12 11.7
2015-Jan-28 10:26 277 0 gusting 15 11.7
2015-Jan-28 10:16 011 10 gusting 13 11.7
2015-Jan-28 10:06 249 11.1
2015-Jan-28 09:56 001 10 gusting 14 11.1
2015-Jan-28 09:36 006 4 gusting 15 10.6
2015-Jan-28 09:06 016 3 gusting 14 10.6
2015-Jan-28 08:36 324 6 gusting 21 10.6
2015-Jan-28 08:16 314 6 gusting 18 10.6
2015-Jan-28 08:06 273 6 gusting 20 10.6
2015-Jan-28 07:46 312 4 gusting 18 10.6
2015-Jan-28 07:36 084 5 gusting 19 10.6
2015-Jan-28 07:16 149 7 gusting 16 10.6
2015-Jan-28 07:06 311 4 gusting 13 10.6
2015-Jan-28 06:56 293 0 10.6
2015-Jan-28 06:46 315 0 10.6
2015-Jan-28 05:26 231 11.1
2015-Jan-28 04:46 302 4 gusting 13 11.1
2015-Jan-28 04:36 001 1 gusting 15 11.1
2015-Jan-28 04:26 306 7 gusting 13 11.1
2015-Jan-28 04:16 300 1 gusting 17 11.1
2015-Jan-28 04:06 273 8 gusting 13 11.1
2015-Jan-28 03:56 271 4 gusting 13 11.1
2015-Jan-28 03:46 013 10 gusting 12 11.1
2015-Jan-28 03:36 001 11.1
2015-Jan-28 03:26 224 11.1
2015-Jan-28 03:16 300 5 gusting 19 11.1
2015-Jan-28 03:06 314 2 gusting 11 11.1
2015-Jan-28 02:46 357 4 gusting 10 11.1
2015-Jan-28 02:36 249 11.1
2015-Jan-28 02:16 039 0 gusting 13 11.1
2015-Jan-28 02:06 334 11.1
2015-Jan-28 01:46 011 3 gusting 17 11.1
2015-Jan-28 01:36 358 7 gusting 14 11.1
2015-Jan-28 01:26 021 6 gusting 15 11.1
2015-Jan-28 01:16 250 6 gusting 13 11.1
2015-Jan-28 01:06 311 1 gusting 13 11.1
2015-Jan-28 00:46 340 3 gusting 18 11.1
2015-Jan-28 00:36 302 6 gusting 13 11.1
2015-Jan-28 00:26 276 3 gusting 12 11.1